Weather History for KICR - October, 2013

Change the Weather History Date:

Saturday, October 19, 2013

  Actual Average Record
Temperature  
Mean Temperature 49 °F 49 °F  
Max Temperature 62 °F 61 °F 80 °F (2014)
Min Temperature 36 °F 38 °F 27 °F (2011)
Degree Days  
Heating Degree Days 16 16  
Month to date heating degree days 260 235  
Since 1 July heating degree days 315 377  
Cooling Degree Days 0 0  
Month to date cooling degree days 2 9  
Year to date cooling degree days 1014 915  
Moisture  
Dew Point 34 °F    
Average Humidity 53    
Maximum Humidity 70    
Minimum Humidity 36    
Precipitation  
Precipitation 0.00 in 0.05 in 0.00 in (2015)
Month to date precipitation 3.93 1.09  
Year to date precipitation 20.66 20.08  
Sea Level Pressure  
Sea Level Pressure 29.84 in    
Wind  
Wind Speed 9 mph (West)    
Max Wind Speed 18 mph    
Max Gust Speed 25 mph    
Visibility 10 miles    
Events      
T = Trace of Precipitation, MM = Missing Value Source: NWS Daily Summary

Daily Weather History Graph

Daily Weather History Graph

Search for Another Location

Airport or City:

Trip Planner

Search our weather history database for the weather conditions in past years. The results will help you decide how hot, cold, wet, or windy it might be!

Date:

Astronomy

Oct. 19, 2013 Rise Set
Actual Time 7:58 AM CDT 6:49 PM CDT
Civil Twilight 7:29 AM CDT 7:18 PM CDT
Nautical Twilight 6:56 AM CDT 7:51 PM CDT
Astronomical Twilight 6:23 AM CDT 8:24 PM CDT
Moon 7:15 PM CDT (10/19) 8:39 AM CDT (10/19)
Length of Visible Light 11h 48m
Length of Day
10h 50m
Waxing Gibbous, 99% of the Moon is Illuminated
Oct 19
Waxing Gibbous
Oct 26
Last Quarter
Nov 3
New
Nov 9
First Quarter
Nov 17
Full

Hourly Weather History & Observations

Time (CDT) Temp. Windchill Dew Point Humidity Pressure Visibility Wind Dir Wind Speed Gust Speed Precip Events Conditions
12:53 AM 39.0 °F 32.3 °F 30.0 °F 70% 29.96 in 10.0 mi WSW 10.4 mph - N/A   Partly Cloudy
1:53 AM 39.0 °F 31.8 °F 28.9 °F 67% 29.94 in 10.0 mi WSW 11.5 mph - N/A   Clear
2:53 AM 37.0 °F 30.4 °F 28.9 °F 73% 29.92 in 10.0 mi SW 9.2 mph - N/A   Clear
3:53 AM 39.0 °F 32.3 °F 28.9 °F 67% 29.88 in 10.0 mi SSW 10.4 mph - N/A   Overcast
4:53 AM 42.1 °F 37.7 °F 30.9 °F 65% 29.86 in 10.0 mi SW 6.9 mph - N/A   Overcast
5:53 AM 43.0 °F 38.2 °F 30.9 °F 62% 29.85 in 10.0 mi WSW 8.1 mph - N/A   Overcast
6:53 AM 46.0 °F 40.2 °F 30.9 °F 56% 29.85 in 10.0 mi West 12.7 mph - N/A   Overcast
7:53 AM 44.1 °F 39.5 °F 33.1 °F 65% 29.86 in 10.0 mi WNW 8.1 mph - N/A   Overcast
8:53 AM 45.0 °F 39.7 °F 33.1 °F 63% 29.87 in 10.0 mi WNW 10.4 mph - N/A   Overcast
9:53 AM 46.9 °F - 35.1 °F 63% 29.89 in 10.0 mi NW 9.2 mph - N/A   Overcast
10:53 AM 51.1 °F - 35.1 °F 54% 29.89 in 10.0 mi NNW 8.1 mph - N/A   Mostly Cloudy
11:53 AM 53.1 °F - 35.1 °F 50% 29.87 in 10.0 mi West 8.1 mph - N/A   Clear
12:53 PM 55.9 °F - 33.1 °F 42% 29.86 in 10.0 mi NW 10.4 mph - N/A   Clear
1:53 PM 57.9 °F - 35.1 °F 42% 29.84 in 10.0 mi WNW 15.0 mph - N/A   Clear
2:53 PM 60.1 °F - 34.0 °F 38% 29.82 in 10.0 mi WNW 17.3 mph 23.0 mph N/A   Clear
3:53 PM 59.0 °F - 33.1 °F 38% 29.81 in 10.0 mi West 15.0 mph - N/A   Partly Cloudy
4:53 PM 61.0 °F - 35.1 °F 38% 29.79 in 10.0 mi WNW 13.8 mph 20.7 mph N/A   Overcast
5:53 PM 57.0 °F - 36.0 °F 45% 29.78 in 10.0 mi WNW 6.9 mph - N/A   Clear
6:53 PM 54.0 °F - 36.0 °F 51% 29.77 in 10.0 mi South 3.5 mph - N/A   Clear
7:53 PM 54.0 °F - 36.0 °F 51% 29.77 in 10.0 mi South 4.6 mph - N/A   Clear
8:53 PM 52.0 °F - 36.0 °F 54% 29.76 in 10.0 mi SSW 5.8 mph - N/A   Clear
9:53 PM 51.1 °F - 37.0 °F 59% 29.75 in 10.0 mi SSW 5.8 mph - N/A   Mostly Cloudy
10:53 PM 51.1 °F - 37.9 °F 61% 29.75 in 10.0 mi SSW 5.8 mph - N/A   Overcast
11:53 PM 51.1 °F - 37.0 °F 59% 29.73 in 10.0 mi WSW 3.5 mph - N/A   Partly Cloudy